Location: Poughquag
(41.6090°N, 73.6820°W)
Time: 14:19:30
(UTC-04:00)

Vanguard 3 - Pass Details

Date: 29 May 2020
Orbit: 510 x 3261 km, 33.3° (Epoch: 05 July)

Event Time Altitude Azimuth Distance (km) Brightness Sun altitude
Exits shadow 00:47:19 10° 131° (SE) 5,537 11.0 -26.7°
Drops below altitude 10° 00:48:10 10° 128° (SE) 5,519 11.0 -26.7°
Sets 00:56:56 0° 98° (E) 5,828 11.5 -26.7°
